Weather History for KDGW - October, 2012

Change the Weather History Date:

Tuesday, October 9, 2012

  Actual Average Record
Temperature  
Mean Temperature 37 °F 48 °F  
Max Temperature 47 °F 64 °F 85 °F (2003)
Min Temperature 27 °F 32 °F 14 °F (2009)
Degree Days  
Heating Degree Days 28 17  
Month to date heating degree days 208 140  
Since 1 July heating degree days 336 409  
Cooling Degree Days 0 0  
Month to date cooling degree days 0 0  
Year to date cooling degree days 831 486  
Moisture  
Dew Point 30 °F    
Average Humidity 65    
Maximum Humidity 85    
Minimum Humidity 45    
Precipitation  
Precipitation T in 0.04 in 0.48 in (2001)
Month to date precipitation 0.14 0.40  
Year to date precipitation 4.33 11.68  
Sea Level Pressure  
Sea Level Pressure 30.11 in    
Wind  
Wind Speed 7 mph (NNW)    
Max Wind Speed 16 mph    
Max Gust Speed 20 mph    
Visibility 10 miles    
Events Snow    
T = Trace of Precipitation, MM = Missing Value Source: NWS Daily Summary

Daily Weather History Graph

Daily Weather History Graph

Search for Another Location

Airport or City:

Trip Planner

Search our weather history database for the weather conditions in past years. The results will help you decide how hot, cold, wet, or windy it might be!

Date:

Astronomy

Oct. 09, 2012 Rise Set
Actual Time 7:08 AM MDT 6:28 PM MDT
Civil Twilight 6:40 AM MDT 6:56 PM MDT
Nautical Twilight 6:07 AM MDT 7:29 PM MDT
Astronomical Twilight 5:34 AM MDT 8:01 PM MDT
Moon 12:39 AM MDT (10/9) 3:04 PM MDT (10/9)
Length of Visible Light 12h 16m
Length of Day
11h 19m
Last Quarter, 36% of the Moon is Illuminated
Oct 9
Last Quarter
Oct 15
New
Oct 21
First Quarter
Oct 29
Full
Nov 6
Last Quarter

Hourly Weather History & Observations

Time (MDT) Temp. Windchill Dew Point Humidity Pressure Visibility Wind Dir Wind Speed Gust Speed Precip Events Conditions
12:53 AM 43.0 °F 36.8 °F 35.1 °F 74% 29.90 in 10.0 mi North 11.5 mph - N/A   Mostly Cloudy
2:04 AM 41.0 °F 34.7 °F 33.8 °F 76% 29.99 in 10.0 mi North 10.4 mph - N/A   Scattered Clouds
2:11 AM 41.0 °F 34.7 °F 33.8 °F 76% 29.99 in 10.0 mi North 10.4 mph - N/A   Mostly Cloudy
2:53 AM 41.0 °F 35.8 °F 34.0 °F 76% 29.92 in 10.0 mi North 8.1 mph - N/A   Overcast
3:53 AM 39.9 °F 32.1 °F 35.1 °F 83% 29.94 in 10.0 mi North 13.8 mph - N/A   Overcast
4:00 AM 39.2 °F 31.6 °F 35.6 °F 87% 30.01 in 10.0 mi NNE 12.7 mph - N/A   Overcast
4:53 AM 37.9 °F 30.5 °F 33.1 °F 83% 29.97 in 10.0 mi North 11.5 mph - N/A   Overcast
5:04 AM 37.4 °F 29.8 °F 32.0 °F 81% 30.03 in 10.0 mi North 11.5 mph - N/A   Overcast
5:53 AM 37.0 °F 28.1 °F 32.0 °F 82% 30.01 in 10.0 mi North 15.0 mph - N/A   Overcast
6:12 AM 35.6 °F 27.1 °F 32.0 °F 87% 30.06 in 10.0 mi North 12.7 mph - N/A   Overcast
6:53 AM 35.1 °F 29.3 °F 30.0 °F 82% 30.06 in 10.0 mi North 6.9 mph 17.3 mph N/A   Overcast
7:01 AM 35.6 °F 28.6 °F 30.2 °F 81% 30.08 in 10.0 mi North 9.2 mph - N/A   Overcast
7:18 AM 33.8 °F 27.7 °F 28.4 °F 81% 30.09 in 10.0 mi North 6.9 mph - N/A   Overcast
7:53 AM 34.0 °F 28.8 °F 28.9 °F 82% 30.09 in 10.0 mi North 5.8 mph - N/A   Overcast
8:53 AM 35.1 °F 27.9 °F 28.9 °F 78% 30.13 in 10.0 mi NNW 9.2 mph - 0.00 in   Overcast
9:45 AM 35.6 °F 30.7 °F 30.2 °F 81% 30.14 in 9.0 mi North 5.8 mph - 0.00 in Snow Light Snow
9:53 AM 35.1 °F 31.0 °F 30.9 °F 85% 30.15 in 9.0 mi NNW 4.6 mph - 0.00 in   Overcast
10:16 AM 35.6 °F 31.7 °F 30.2 °F 81% 30.15 in 10.0 mi NNW 4.6 mph - N/A   Overcast
10:43 AM 35.6 °F 30.7 °F 30.2 °F 81% 30.15 in 10.0 mi NW 5.8 mph - N/A   Overcast
10:53 AM 37.0 °F 32.4 °F 30.9 °F 79% 30.16 in 10.0 mi NNW 5.8 mph - N/A   Overcast
11:04 AM 37.4 °F 32.1 °F 30.2 °F 75% 30.15 in 10.0 mi NNW 6.9 mph - N/A   Overcast
11:31 AM 37.4 °F 30.8 °F 28.4 °F 70% 30.16 in 10.0 mi NW 9.2 mph - N/A   Overcast
11:53 AM 37.9 °F 31.5 °F 28.0 °F 68% 30.17 in 10.0 mi NW 9.2 mph - N/A   Overcast
12:12 PM 39.2 °F 33.6 °F 28.4 °F 65% 30.16 in 10.0 mi NW 8.1 mph - N/A   Overcast
12:38 PM 39.2 °F 33.6 °F 28.4 °F 65% 30.16 in 10.0 mi NNW 8.1 mph - N/A   Overcast
12:53 PM 39.9 °F 35.8 °F 28.9 °F 65% 30.16 in 10.0 mi WNW 5.8 mph - N/A   Overcast
1:53 PM 41.0 °F 35.8 °F 26.1 °F 55% 30.15 in 10.0 mi NW 8.1 mph - N/A   Overcast
2:53 PM 46.0 °F 41.0 °F 26.1 °F 46% 30.12 in 10.0 mi West 10.4 mph 18.4 mph N/A   Mostly Cloudy
3:53 PM 46.0 °F 40.6 °F 27.0 °F 47% 30.12 in 10.0 mi WNW 11.5 mph - N/A   Partly Cloudy
4:53 PM 46.9 °F - 28.0 °F 48% 30.12 in 10.0 mi WNW 8.1 mph - N/A   Clear
5:53 PM 45.0 °F 41.8 °F 28.9 °F 53% 30.13 in 10.0 mi WNW 5.8 mph - N/A   Partly Cloudy
6:53 PM 39.9 °F 37.8 °F 28.0 °F 63% 30.16 in 10.0 mi NNW 3.5 mph - N/A   Clear
7:53 PM 36.0 °F 33.3 °F 26.1 °F 67% 30.19 in 10.0 mi East 3.5 mph - N/A   Clear
8:53 PM 32.0 °F 28.7 °F 25.0 °F 75% 30.22 in 10.0 mi East 3.5 mph - N/A   Clear
9:53 PM 33.1 °F - 26.1 °F 75% 30.23 in 10.0 mi Calm Calm - N/A   Clear
10:53 PM 30.9 °F - 25.0 °F 79% 30.24 in 10.0 mi Calm Calm - N/A   Clear
11:53 PM 30.0 °F - 24.1 °F 79% 30.23 in 10.0 mi Calm Calm - N/A   Clear